Tracking 19212 objects as of 16-Jul-2018
HD Live streaming from Space Station
objects crossing your sky now

FENGYUN 1C DEB

Track FENGYUN 1C DEB now!
10-day predictions


NORAD ID: 31360
Int'l Code: 1999-025BRQ
Perigee: 831.5 km
Apogee: 1,020.1 km
Inclination: 98.0 °
Period: 103.4 minutes
Semi major axis: 7296 km
RCS: 0.0144 m2 (small)
Launch date: May 10, 1999
Source: People's Republic of China (PRC)
Launch site: Taiyaun Space Center, China (TSC)

Note: This is SATELLITE DEBRIS
aabbcc
Your satellite tracking list
Your tracking list is empty




NASA's NSSDC Master Catalog

Two Line Element Set (TLE):
1 31360U 99025BRQ 18185.22232992 +.00000605 +00000-0 +46115-3 0  9993
2 31360 097.9970 348.4197 0129283 020.7863 339.8491 13.92853583569153
Source of the keplerian elements: AFSPC